LKE9976 ZGGG-ZGDY

Flight info

Callsign LKE9976
Flight time 1h 23m
Altitude 37100
Route MIKIP9 MIKIP A461 BUBDA/K0861S1100 W56 REBIS/K0857S1130 W56 OBLUV/K0863S1100 W226 IPMUG W611 BIVAV W138 DYG
Aircraft B738/M-SDE2E3FGHIRWXY/LB1

Departure

Time 2026-04-26 06:26
Airport Guangzhou Baiyun International Airport (ZGGG)

Arrival

Time 2026-04-26 07:50
Airport Zhangjiajie Hehua International Airport (ZGDY)
Time Latitude Longitude Altitude Speed Heading
2026-04-26 06:13 23.38346 113.29034 37 ft 0 kts 193°
2026-04-26 06:19 23.38359 113.29037 37 ft 2 kts 193°
2026-04-26 06:19 23.38374 113.29041 37 ft 2 kts 194°
2026-04-26 06:19 23.38389 113.29045 37 ft 2 kts 193°
2026-04-26 06:19 23.38403 113.29049 37 ft 1 kts 193°
2026-04-26 06:20 23.38411 113.29053 37 ft 1 kts 243°
2026-04-26 06:20 23.38413 113.29060 37 ft 0 kts 285°
2026-04-26 06:20 23.38410 113.29067 37 ft 0 kts 285°
2026-04-26 06:22 23.38431 113.28984 37 ft 24 kts 283°
2026-04-26 06:23 23.38467 113.28798 37 ft 24 kts 267°
2026-04-26 06:23 23.38330 113.28715 35 ft 25 kts 193°
2026-04-26 06:23 23.38144 113.28669 34 ft 27 kts 194°
2026-04-26 06:23 23.37919 113.28604 34 ft 32 kts 193°
2026-04-26 06:24 23.37756 113.28558 34 ft 24 kts 195°
2026-04-26 06:24 23.37680 113.28458 34 ft 1 kts 282°
2026-04-26 06:24 23.37681 113.28455 34 ft 2 kts 282°
2026-04-26 06:24 23.37751 113.28367 34 ft 25 kts
2026-04-26 06:25 23.37778 113.28373 34 ft 0 kts 13°
2026-04-26 06:25 23.37782 113.28374 34 ft 0 kts 14°
2026-04-26 06:25 23.37791 113.28377 34 ft 1 kts 14°
2026-04-26 06:25 23.37804 113.28380 34 ft 2 kts 14°
2026-04-26 06:26 23.37824 113.28385 34 ft 6 kts 14°
2026-04-26 06:26 23.38167 113.28477 34 ft 106 kts 14°
2026-04-26 06:26 23.39191 113.28751 146 ft 189 kts 13°
2026-04-26 06:26 23.40507 113.28932 1218 ft 199 kts 353°
2026-04-26 06:27 23.41733 113.28271 2139 ft 207 kts 312°
2026-04-26 06:27 23.42629 113.27016 2882 ft 217 kts 310°
2026-04-26 06:27 23.43837 113.25899 3144 ft 234 kts 330°
2026-04-26 06:27 23.45326 113.25059 3856 ft 246 kts 336°
2026-04-26 06:28 23.47091 113.24369 3329 ft 284 kts 345°
2026-04-26 06:28 23.48958 113.23908 3326 ft 259 kts 349°
2026-04-26 06:28 23.50731 113.23634 3255 ft 259 kts 354°
2026-04-26 06:28 23.52489 113.23756 3086 ft 243 kts 18°
2026-04-26 06:29 23.53980 113.24629 3185 ft 248 kts 36°
2026-04-26 06:29 23.55388 113.25721 3182 ft 248 kts 37°
2026-04-26 06:29 23.56786 113.26811 3181 ft 249 kts 36°
2026-04-26 06:29 23.58193 113.27902 3179 ft 248 kts 37°
2026-04-26 06:30 23.59672 113.28921 3159 ft 250 kts 24°
2026-04-26 06:30 23.61360 113.29323 3171 ft 251 kts
2026-04-26 06:30 23.63158 113.29433 3185 ft 267 kts
2026-04-26 06:30 23.65034 113.29621 3175 ft 273 kts
2026-04-26 06:31 23.67020 113.29936 3747 ft 292 kts
2026-04-26 06:31 23.68983 113.30290 5086 ft 287 kts 10°
2026-04-26 06:31 23.70905 113.30640 6397 ft 282 kts
2026-04-26 06:31 23.72830 113.30990 7520 ft 284 kts
2026-04-26 06:32 23.74769 113.31337 8528 ft 289 kts
2026-04-26 06:32 23.76749 113.31688 9531 ft 294 kts
2026-04-26 06:32 23.78795 113.32049 10479 ft 301 kts
2026-04-26 06:32 23.80898 113.32419 11162 ft 318 kts
2026-04-26 06:33 23.83140 113.32810 11841 ft 334 kts
2026-04-26 06:33 23.85510 113.33227 12511 ft 351 kts
2026-04-26 06:33 23.87947 113.33659 13129 ft 367 kts
2026-04-26 06:33 23.90542 113.34119 13728 ft 384 kts
2026-04-26 06:34 23.93228 113.34595 14285 ft 401 kts
2026-04-26 06:34 23.96057 113.35097 14866 ft 417 kts
2026-04-26 06:34 23.98972 113.35615 15540 ft 429 kts
2026-04-26 06:34 24.01925 113.36140 16348 ft 435 kts
2026-04-26 06:35 24.04954 113.36679 17133 ft 442 kts
2026-04-26 06:35 24.07974 113.37218 17962 ft 447 kts
2026-04-26 06:35 24.11090 113.37772 18822 ft 451 kts
2026-04-26 06:35 24.14198 113.38326 19387 ft 456 kts
2026-04-26 06:36 24.17363 113.38890 19634 ft 458 kts
2026-04-26 06:36 24.20497 113.39449 19640 ft 455 kts
2026-04-26 06:36 24.23605 113.40003 19636 ft 455 kts
2026-04-26 06:36 24.26763 113.40565 19808 ft 466 kts
2026-04-26 06:37 24.29981 113.41139 20956 ft 462 kts
2026-04-26 06:37 24.33132 113.41694 21791 ft 465 kts
2026-04-26 06:37 24.36367 113.42114 22545 ft 469 kts
2026-04-26 06:37 24.39633 113.42345 23293 ft 473 kts
2026-04-26 06:38 24.42957 113.42466 24055 ft 476 kts 359°
2026-04-26 06:38 24.46266 113.42534 24732 ft 481 kts 358°
2026-04-26 06:38 24.49616 113.42584 25477 ft 483 kts 358°
2026-04-26 06:38 24.52960 113.42635 26458 ft 479 kts 358°
2026-04-26 06:39 24.56288 113.42694 27528 ft 473 kts 358°
2026-04-26 06:39 24.59540 113.42761 28441 ft 470 kts 358°
2026-04-26 06:39 24.62789 113.42836 29341 ft 467 kts 358°
2026-04-26 06:39 24.66062 113.42918 30264 ft 463 kts 358°
2026-04-26 06:40 24.69232 113.43003 31183 ft 459 kts 358°
2026-04-26 06:40 24.72427 113.43091 32065 ft 455 kts 357°
2026-04-26 06:40 24.75552 113.43178 32854 ft 452 kts 357°
2026-04-26 06:40 24.78729 113.43267 33627 ft 450 kts 357°
2026-04-26 06:41 24.81871 113.43356 34454 ft 447 kts 356°
2026-04-26 06:41 24.84978 113.43445 35313 ft 442 kts 356°
2026-04-26 06:41 24.88084 113.43534 36074 ft 439 kts 356°
2026-04-26 06:41 24.91164 113.43623 36763 ft 437 kts 355°
2026-04-26 06:42 24.94194 113.43707 37084 ft 441 kts 355°
2026-04-26 06:42 25.00339 113.43877 37090 ft 437 kts 355°
2026-04-26 06:43 25.06459 113.44051 37094 ft 438 kts 355°
2026-04-26 06:43 25.12550 113.44223 37097 ft 438 kts 355°
2026-04-26 06:44 25.17082 113.44353 37098 ft 437 kts 355°
2026-04-26 06:44 25.23174 113.44524 37108 ft 438 kts 355°
2026-04-26 06:45 25.29261 113.44700 37113 ft 435 kts 355°
2026-04-26 06:45 25.35333 113.44875 37118 ft 436 kts 355°
2026-04-26 06:46 25.41440 113.45049 37119 ft 436 kts 355°
2026-04-26 06:46 25.47518 113.45223 37132 ft 435 kts 355°
2026-04-26 06:47 25.53580 113.45399 37130 ft 434 kts 355°
2026-04-26 06:47 25.59651 113.45572 37128 ft 436 kts 355°
2026-04-26 06:48 25.65745 113.45748 37133 ft 435 kts 355°
2026-04-26 06:48 25.66663 113.45775 37138 ft 435 kts 355°
2026-04-26 06:49 25.72507 113.45945 37138 ft 435 kts 355°
2026-04-26 06:49 25.78582 113.46120 37111 ft 434 kts 355°
2026-04-26 06:50 25.84658 113.46295 37123 ft 435 kts 355°
2026-04-26 06:50 25.90741 113.46363 37098 ft 434 kts 353°
2026-04-26 06:51 25.96782 113.46124 37089 ft 430 kts 351°
2026-04-26 06:51 26.05799 113.45685 37078 ft 432 kts 352°
2026-04-26 06:52 26.11811 113.45425 37083 ft 430 kts 352°
2026-04-26 06:52 26.17860 113.45181 37079 ft 433 kts 352°
2026-04-26 06:53 26.23851 113.44949 37089 ft 430 kts 352°
2026-04-26 06:53 26.29892 113.44716 37073 ft 432 kts 352°
2026-04-26 06:54 26.35888 113.44486 37066 ft 431 kts 352°
2026-04-26 06:54 26.41916 113.44254 37058 ft 431 kts 353°
2026-04-26 06:55 26.47946 113.44020 37050 ft 431 kts 352°
2026-04-26 06:55 26.53965 113.43790 37041 ft 430 kts 352°
2026-04-26 06:56 26.59948 113.43560 37040 ft 432 kts 352°
2026-04-26 06:56 26.65995 113.43328 37040 ft 430 kts 353°
2026-04-26 06:57 26.71987 113.43099 37031 ft 431 kts 353°
2026-04-26 06:57 26.77999 113.42870 37037 ft 432 kts 352°
2026-04-26 06:58 26.84054 113.42637 37037 ft 432 kts 353°
2026-04-26 06:58 26.90093 113.42404 37043 ft 431 kts 353°
2026-04-26 06:59 26.96094 113.42172 37051 ft 432 kts 353°
2026-04-26 06:59 27.02145 113.41940 37052 ft 430 kts 353°
2026-04-26 07:00 27.08189 113.41706 37042 ft 431 kts 352°
2026-04-26 07:00 27.14151 113.41475 37038 ft 429 kts 352°
2026-04-26 07:01 27.20144 113.41243 37034 ft 430 kts 352°
2026-04-26 07:01 27.26141 113.41010 37028 ft 430 kts 353°
2026-04-26 07:02 27.32110 113.40779 37026 ft 430 kts 352°
2026-04-26 07:02 27.38122 113.40713 37025 ft 431 kts 355°
2026-04-26 07:03 27.44158 113.40867 37022 ft 430 kts 356°
2026-04-26 07:03 27.50140 113.41039 37022 ft 431 kts 355°
2026-04-26 07:04 27.56136 113.41190 37019 ft 430 kts 355°
2026-04-26 07:04 27.62141 113.41320 37017 ft 429 kts 355°
2026-04-26 07:05 27.68113 113.41501 37018 ft 430 kts 357°
2026-04-26 07:05 27.74121 113.42004 37016 ft 432 kts 359°
2026-04-26 07:06 27.80174 113.42606 37018 ft 430 kts 359°
2026-04-26 07:06 27.86158 113.43186 37029 ft 430 kts 359°
2026-04-26 07:07 27.92172 113.43744 37034 ft 431 kts 358°
2026-04-26 07:07 27.98166 113.44281 37035 ft 429 kts 358°
2026-04-26 07:08 28.04147 113.44806 37033 ft 429 kts 358°
2026-04-26 07:08 28.10086 113.45308 37031 ft 429 kts 356°
2026-04-26 07:09 28.15917 113.44572 37025 ft 415 kts 338°
2026-04-26 07:09 28.21117 113.41930 37013 ft 407 kts 326°
2026-04-26 07:10 28.27207 113.35525 37008 ft 400 kts 303°
2026-04-26 07:11 28.29821 113.29984 37008 ft 397 kts 291°
2026-04-26 07:11 28.30935 113.23794 37014 ft 403 kts 276°
2026-04-26 07:12 28.30645 113.17417 37004 ft 412 kts 263°
2026-04-26 07:12 28.28669 113.11276 37004 ft 422 kts 247°
2026-04-26 07:13 28.25273 113.05753 37006 ft 433 kts 236°
2026-04-26 07:13 28.21261 113.00650 36996 ft 432 kts 234°
2026-04-26 07:14 28.17322 112.95536 36722 ft 420 kts 238°
2026-04-26 07:14 28.15660 112.92856 36192 ft 411 kts 244°
2026-04-26 07:14 28.14309 112.90057 35327 ft 408 kts 250°
2026-04-26 07:14 28.13265 112.87081 34610 ft 406 kts 257°
2026-04-26 07:15 28.12553 112.83981 34071 ft 410 kts 263°
2026-04-26 07:15 28.12169 112.80774 33534 ft 415 kts 268°
2026-04-26 07:15 28.12120 112.77484 33039 ft 415 kts 274°
2026-04-26 07:15 28.12410 112.74236 32571 ft 416 kts 280°
2026-04-26 07:16 28.13004 112.70982 32096 ft 418 kts 284°
2026-04-26 07:16 28.13690 112.67802 31627 ft 423 kts 284°
2026-04-26 07:16 28.14334 112.64553 31153 ft 425 kts 282°
2026-04-26 07:16 28.14875 112.61256 30676 ft 428 kts 279°
2026-04-26 07:17 28.15314 112.57894 30201 ft 433 kts 278°
2026-04-26 07:17 28.15667 112.54493 29722 ft 434 kts 277°
2026-04-26 07:17 28.15955 112.51102 29258 ft 437 kts 276°
2026-04-26 07:17 28.16205 112.47646 28797 ft 441 kts 275°
2026-04-26 07:18 28.16426 112.44193 28342 ft 442 kts 275°
2026-04-26 07:18 28.16632 112.40730 27887 ft 441 kts 274°
2026-04-26 07:18 28.16829 112.37266 27430 ft 446 kts 274°
2026-04-26 07:18 28.17020 112.33796 26981 ft 446 kts 274°
2026-04-26 07:19 28.17213 112.30257 26520 ft 447 kts 273°
2026-04-26 07:19 28.17401 112.26752 26072 ft 451 kts 273°
2026-04-26 07:19 28.17587 112.23219 25620 ft 453 kts 273°
2026-04-26 07:19 28.17801 112.19692 25172 ft 453 kts 275°
2026-04-26 07:20 28.18141 112.16132 24722 ft 449 kts 276°
2026-04-26 07:20 28.18559 112.12634 24272 ft 446 kts 277°
2026-04-26 07:20 28.19007 112.09182 23821 ft 444 kts 278°
2026-04-26 07:20 28.19460 112.05750 23537 ft 443 kts 278°
2026-04-26 07:21 28.19921 112.02312 23529 ft 443 kts 279°
2026-04-26 07:21 28.20630 111.98923 23534 ft 446 kts 286°
2026-04-26 07:21 28.21720 111.95634 23534 ft 447 kts 292°
2026-04-26 07:21 28.23100 111.92466 23533 ft 447 kts 297°
2026-04-26 07:22 28.24672 111.89411 23536 ft 450 kts 300°
2026-04-26 07:22 28.26354 111.86408 23528 ft 448 kts 301°
2026-04-26 07:22 28.28062 111.83469 23528 ft 450 kts 302°
2026-04-26 07:22 28.29798 111.80518 23527 ft 449 kts 302°
2026-04-26 07:23 28.31518 111.77594 23520 ft 450 kts 301°
2026-04-26 07:23 28.33248 111.74637 23523 ft 449 kts 301°
2026-04-26 07:23 28.34971 111.71677 23513 ft 448 kts 301°
2026-04-26 07:23 28.36686 111.68711 23515 ft 452 kts 301°
2026-04-26 07:24 28.38398 111.65739 23512 ft 451 kts 301°
2026-04-26 07:24 28.40116 111.62743 23510 ft 451 kts 301°
2026-04-26 07:24 28.41832 111.59742 23512 ft 450 kts 301°
2026-04-26 07:24 28.43539 111.56750 23444 ft 453 kts 301°
2026-04-26 07:25 28.45240 111.53767 23193 ft 448 kts 301°
2026-04-26 07:25 28.46945 111.50772 22939 ft 449 kts 301°
2026-04-26 07:25 28.48645 111.47782 22687 ft 447 kts 301°
2026-04-26 07:25 28.50326 111.44821 22432 ft 445 kts 301°
2026-04-26 07:26 28.51998 111.41875 22182 ft 445 kts 301°
2026-04-26 07:26 28.53677 111.38911 21931 ft 443 kts 301°
2026-04-26 07:26 28.55337 111.35983 21682 ft 441 kts 301°
2026-04-26 07:26 28.57009 111.33028 21429 ft 441 kts 301°
2026-04-26 07:27 28.58680 111.30072 21179 ft 441 kts 301°
2026-04-26 07:27 28.60313 111.27184 20937 ft 438 kts 301°
2026-04-26 07:27 28.61964 111.24262 20695 ft 438 kts 301°
2026-04-26 07:27 28.63605 111.21355 20449 ft 436 kts 301°
2026-04-26 07:28 28.65231 111.18473 20210 ft 432 kts 301°
2026-04-26 07:28 28.66864 111.15582 19956 ft 431 kts 301°
2026-04-26 07:28 28.68485 111.12725 19714 ft 432 kts 301°
2026-04-26 07:28 28.70111 111.09873 19473 ft 431 kts 301°
2026-04-26 07:29 28.71745 111.07012 19232 ft 427 kts 301°
2026-04-26 07:29 28.73358 111.04188 18983 ft 426 kts 301°
2026-04-26 07:29 28.74978 111.01346 18742 ft 425 kts 301°
2026-04-26 07:29 28.76573 110.98545 18502 ft 424 kts 302°
2026-04-26 07:30 28.78179 110.95721 18262 ft 422 kts 302°
2026-04-26 07:30 28.79781 110.92900 18018 ft 422 kts 302°
2026-04-26 07:30 28.81350 110.90134 17780 ft 420 kts 302°
2026-04-26 07:30 28.82939 110.87334 17540 ft 418 kts 302°
2026-04-26 07:31 28.84523 110.84541 17293 ft 417 kts 302°
2026-04-26 07:31 28.86082 110.81788 17043 ft 418 kts 302°
2026-04-26 07:31 28.87668 110.78987 16799 ft 414 kts 302°
2026-04-26 07:31 28.89235 110.76219 16555 ft 414 kts 302°
2026-04-26 07:32 28.90787 110.73479 16322 ft 414 kts 301°
2026-04-26 07:32 28.92334 110.70741 16085 ft 413 kts 301°
2026-04-26 07:32 28.93894 110.67980 15851 ft 412 kts 302°
2026-04-26 07:32 28.95452 110.65221 15609 ft 410 kts 301°
2026-04-26 07:33 28.96978 110.62519 15372 ft 399 kts 301°
2026-04-26 07:33 28.98452 110.59910 15137 ft 383 kts 301°
2026-04-26 07:33 28.99868 110.57398 14908 ft 368 kts 301°
2026-04-26 07:33 29.01218 110.55003 14677 ft 354 kts 301°
2026-04-26 07:34 29.02528 110.52675 14442 ft 341 kts 301°
2026-04-26 07:34 29.03792 110.50427 14187 ft 330 kts 301°
2026-04-26 07:34 29.05005 110.48266 13967 ft 320 kts 300°
2026-04-26 07:34 29.06195 110.46144 13720 ft 311 kts 301°
2026-04-26 07:35 29.07334 110.44111 13472 ft 303 kts 300°
2026-04-26 07:35 29.08455 110.42110 13335 ft 291 kts 300°
2026-04-26 07:35 29.09394 110.40155 13334 ft 273 kts 290°
2026-04-26 07:35 29.09976 110.38154 13328 ft 257 kts 282°
2026-04-26 07:36 29.10374 110.36182 13337 ft 253 kts 280°
2026-04-26 07:36 29.10747 110.34212 13337 ft 255 kts 279°
2026-04-26 07:36 29.11148 110.32237 13151 ft 258 kts 281°
2026-04-26 07:36 29.11576 110.30255 12833 ft 257 kts 281°
2026-04-26 07:37 29.12016 110.28265 12534 ft 255 kts 282°
2026-04-26 07:37 29.12447 110.26320 12251 ft 253 kts 281°
2026-04-26 07:37 29.12871 110.24386 11936 ft 252 kts 281°
2026-04-26 07:37 29.13298 110.22411 11471 ft 255 kts 281°
2026-04-26 07:38 29.13718 110.20470 11217 ft 249 kts 280°
2026-04-26 07:38 29.14129 110.18578 10939 ft 246 kts 281°
2026-04-26 07:38 29.14539 110.16704 10657 ft 242 kts 281°
2026-04-26 07:38 29.14944 110.14846 10388 ft 239 kts 280°
2026-04-26 07:39 29.15340 110.13023 10122 ft 235 kts 280°
2026-04-26 07:39 29.15730 110.11223 9861 ft 232 kts 280°
2026-04-26 07:39 29.16117 110.09424 9596 ft 229 kts 280°
2026-04-26 07:39 29.16494 110.07667 9350 ft 226 kts 278°
2026-04-26 07:40 29.16480 110.05968 9114 ft 211 kts 246°
2026-04-26 07:40 29.15590 110.04733 8918 ft 198 kts 206°
2026-04-26 07:40 29.14277 110.04345 8722 ft 193 kts 189°
2026-04-26 07:40 29.12953 110.04098 8501 ft 190 kts 191°
2026-04-26 07:41 29.11654 110.03879 8296 ft 189 kts 188°
2026-04-26 07:41 29.10338 110.03741 8088 ft 190 kts 185°
2026-04-26 07:41 29.09025 110.03692 7887 ft 190 kts 181°
2026-04-26 07:41 29.07703 110.03738 7683 ft 189 kts 178°
2026-04-26 07:42 29.06388 110.03857 7483 ft 188 kts 176°
2026-04-26 07:42 29.05108 110.04030 7280 ft 187 kts 174°
2026-04-26 07:42 29.03825 110.04265 7078 ft 185 kts 169°
2026-04-26 07:42 29.02721 110.04969 6891 ft 185 kts 135°
2026-04-26 07:43 29.02158 110.06293 6703 ft 190 kts 107°
2026-04-26 07:43 29.02088 110.07822 6498 ft 194 kts 87°
2026-04-26 07:43 29.02399 110.09319 6296 ft 197 kts 80°
2026-04-26 07:43 29.02708 110.10860 6082 ft 197 kts 81°
2026-04-26 07:44 29.03062 110.12359 5867 ft 196 kts 79°
2026-04-26 07:44 29.03424 110.13853 5653 ft 194 kts 80°
2026-04-26 07:44 29.03763 110.15339 5532 ft 192 kts 80°
2026-04-26 07:44 29.04095 110.16814 5396 ft 194 kts 80°
2026-04-26 07:45 29.04434 110.18310 5209 ft 193 kts 80°
2026-04-26 07:45 29.04769 110.19788 5033 ft 191 kts 79°
2026-04-26 07:45 29.05105 110.21275 4736 ft 194 kts 79°
2026-04-26 07:45 29.05437 110.22749 4457 ft 194 kts 78°
2026-04-26 07:46 29.05775 110.24249 4185 ft 192 kts 78°
2026-04-26 07:46 29.06100 110.25678 4143 ft 186 kts 78°
2026-04-26 07:46 29.06428 110.27136 4154 ft 189 kts 78°
2026-04-26 07:46 29.06759 110.28606 4036 ft 196 kts 78°
2026-04-26 07:47 29.07111 110.30139 3743 ft 207 kts 77°
2026-04-26 07:47 29.07488 110.31722 3517 ft 195 kts 77°
2026-04-26 07:47 29.07830 110.33149 2999 ft 184 kts 76°
2026-04-26 07:47 29.08163 110.34552 2380 ft 180 kts 76°
2026-04-26 07:48 29.08473 110.35884 1935 ft 169 kts 77°
2026-04-26 07:48 29.08737 110.37147 1876 ft 165 kts 78°
2026-04-26 07:48 29.08991 110.38353 1685 ft 150 kts 75°
2026-04-26 07:48 29.09254 110.39498 1433 ft 152 kts 77°
2026-04-26 07:49 29.09505 110.40719 1290 ft 159 kts 77°
2026-04-26 07:49 29.09761 110.41915 1029 ft 152 kts 77°
2026-04-26 07:49 29.10014 110.43085 794 ft 147 kts 76°
2026-04-26 07:50 29.10380 110.44732 767 ft 67 kts 75°
2026-04-26 07:50 29.10524 110.45100 767 ft 33 kts 47°
2026-04-26 07:50 29.10628 110.45139 766 ft 16 kts 282°
2026-04-26 07:50 29.10607 110.45007 766 ft 17 kts 256°
2026-04-26 07:51 29.10580 110.44878 766 ft 19 kts 257°